[[{"header":{"parameterUnit":"m.s-1","parameterCategory":2,"la1":30.2991,"la2":30.254,"lo1":-89.0895,"lo2":-89.0444,"dy":0.0017,"dx":0.0017,"nx":28,"ny":28,"refTime":"2025-11-18T03:00:00:Z","depth":"0","parameterNumber":2,"parameterNumberName":"U-component_of_CURRENTS"},"data":[0,0,0,0,0,0,0,0,0,0,0,0,0,0,0,0,0,0,0,0,0,0,0,0,0,0,0,0,0,0,0,0,0,0,0,0,0,0,0,0,0,0,0,0,0,0,0,0,0,0,0,0,0,0,0,0,0,0,-0.2672,-0.2673,0,-0.2683,-0.2683,-0.2682,-0.2619,-0.2617,-0.2616,-0.2615,-0.2511,-0.251,-0.2508,0,0,0,0,0,0,0,0,0,0,0,0,0,-0.2535,-0.2538,-0.2672,-0.2673,-0.2673,-0.2683,-0.2683,-0.2682,-0.2619,-0.2617,-0.2616,-0.2615,-0.2512,-0.251,-0.2508,0,0,0,0,0,0,0,0,0,0,0,0,0,-0.2569,-0.2538,-0.2672,-0.2648,-0.2647,-0.2684,-0.2683,-0.2682,-0.2619,-0.2617,-0.2616,-0.2614,-0.2512,-0.251,-0.2507,-0.2527,0,0,-0.25,-0.2499,0,0,0,0,0,0,0,0,-0.2567,-0.2573,-0.2651,-0.265,-0.2649,-0.2654,-0.2597,-0.2627,-0.262,-0.2622,-0.2615,-0.2613,-0.2554,-0.2548,-0.2546,-0.2522,-0.2517,-0.25,-0.2498,-0.2497,-0.2496,0,0,0,0,0,0,0,-0.2565,-0.2572,-0.2669,-0.2652,-0.2651,-0.2617,-0.262,-0.2602,-0.259,-0.2622,-0.2619,-0.2632,-0.2552,-0.2548,-0.2542,-0.2516,-0.25,-0.2497,-0.2496,-0.2495,-0.2508,-0.2509,0,0,0,0,0,0,-0.2584,-0.257,-0.2669,-0.267,-0.2611,-0.2622,-0.2624,-0.2648,-0.2593,-0.2586,-0.2634,-0.263,-0.2553,-0.2546,-0.2538,-0.2582,-0.2497,-0.2495,-0.2493,-0.2506,-0.2508,-0.251,0,0,0,0,0,0,-0.2581,-0.2593,-0.2668,-0.2625,-0.2633,-0.2628,-0.2654,-0.265,-0.2653,-0.2605,-0.2593,-0.2643,-0.2552,-0.2542,-0.2536,-0.2576,-0.2493,-0.2491,-0.2504,-0.2507,-0.2509,-0.2654,0,0,0,0,0,0,-0.2577,-0.2592,-0.2603,-0.2627,-0.2637,-0.2713,-0.2656,-0.2651,-0.2667,-0.2661,-0.2609,-0.2597,-0.255,-0.254,-0.2534,-0.2571,-0.2489,-0.2501,-0.2505,-0.2508,-0.2647,-0.2661,-0.2673,0,0,0,0,0,-0.2572,-0.2608,-0.2603,-0.2615,-0.2657,-0.2717,-0.2719,-0.2701,-0.267,-0.2692,-0.2649,-0.2599,-0.2557,-0.254,-0.2532,-0.257,-0.25,-0.2504,-0.2508,-0.2641,-0.2658,-0.2673,0,0,0,0,0,0,-0.2541,-0.2607,-0.2601,-0.265,-0.269,-0.2709,-0.2727,-0.2718,-0.2703,-0.2684,-0.2625,-0.2612,-0.2618,-0.2579,-0.2561,-0.2583,-0.252,-0.2523,-0.2624,-0.264,-0.2653,-0.2663,-0.2487,0,0,0,0,0,-0.2547,-0.2589,-0.2645,-0.2676,-0.271,-0.272,-0.2735,-0.2732,-0.2731,-0.2722,-0.2696,-0.2657,-0.2631,-0.2623,-0.2594,-0.2615,-0.2568,-0.2632,-0.2646,-0.2658,-0.266,-0.2627,-0.2638,-0.2524,-0.2524,-0.2524,0,0,-0.2531,-0.258,-0.2594,-0.2673,-0.2697,-0.277,-0.2724,-0.2767,-0.2808,-0.2713,-0.2751,-0.2702,-0.2645,-0.266,-0.2661,-0.2633,-0.2671,-0.2663,-0.2674,-0.2669,-0.2632,-0.2643,-0.2653,-0.2527,-0.2526,-0.2526,0,0,-0.2564,-0.2586,-0.2651,-0.2706,-0.2775,-0.2795,-0.2819,-0.2863,-0.2863,-0.2899,-0.283,-0.2808,-0.2796,-0.2759,-0.2735,-0.2808,-0.2738,-0.2805,-0.2889,-0.2858,-0.2867,-0.2874,-0.2852,-0.2856,-0.2819,-0.2819,-0.2819,0,-0.2547,-0.2642,-0.2673,-0.277,-0.2814,-0.2822,-0.2902,-0.2923,-0.295,-0.295,-0.2929,-0.289,-0.2841,-0.2839,-0.2862,-0.2839,-0.2812,-0.2834,-0.2876,-0.2881,-0.2886,-0.2862,-0.2864,-0.2827,-0.2826,-0.2825,-0.2824,0,-0.2643,-0.2723,-0.2774,-0.2896,-0.2943,-0.3014,-0.3064,-0.3099,-0.3096,-0.3098,-0.3102,-0.3044,-0.3005,-0.3005,-0.2955,-0.2971,-0.2939,-0.2892,-0.2836,-0.2906,-0.2876,-0.2876,-0.2837,-0.2835,-0.2832,-0.2831,0,0,-0.2578,-0.2805,-0.2811,-0.2891,-0.3015,-0.3057,-0.3143,-0.3206,-0.3225,-0.3249,-0.3265,-0.3236,-0.3177,-0.3145,-0.3084,-0.3075,-0.3089,-0.3012,-0.3007,-0.2994,-0.3034,-0.2888,-0.2873,-0.3052,-0.3053,-0.3053,-0.3008,0,-0.2641,-0.2844,-0.2925,-0.3066,-0.317,-0.3214,-0.328,-0.3318,-0.3331,-0.3352,-0.3306,-0.3283,-0.324,-0.3198,-0.3194,-0.3093,-0.3092,-0.3106,-0.2963,-0.2959,-0.2823,-0.2869,-0.2731,-0.2667,-0.3007,-0.3007,-0.3007,0,-0.268,-0.2827,-0.2996,-0.3162,-0.3201,-0.3266,-0.3331,-0.3397,-0.3428,-0.3425,-0.3416,-0.3363,-0.3338,-0.3284,-0.3205,-0.3216,-0.3142,-0.3087,-0.3083,-0.289,-0.2812,-0.2646,-0.2653,-0.2623,-0.3005,-0.3005,-0.3006,0,-0.26,-0.2839,-0.2969,-0.3036,-0.3235,-0.3273,-0.3346,-0.3397,-0.3425,-0.3449,-0.3434,-0.342,-0.3361,-0.3311,-0.3182,-0.3193,-0.309,-0.3076,-0.2893,-0.2882,-0.2704,-0.2676,-0.2659,-0.3032,-0.3033,-0.3033,-0.3033,0,-0.262,-0.27,-0.294,-0.3018,-0.312,-0.324,-0.3299,-0.3365,-0.3417,-0.3421,-0.3438,-0.3402,-0.336,-0.3285,-0.3209,-0.3033,-0.3099,-0.2908,-0.2856,-0.2752,-0.2729,-0.2641,-0.2672,-0.3031,-0.3031,-0.3032,-0.3032,0,-0.2481,-0.2659,-0.2814,-0.3043,-0.3096,-0.3149,-0.3287,-0.3313,-0.3372,-0.3378,-0.3373,-0.3374,-0.3268,-0.321,-0.3098,-0.301,-0.2822,-0.2811,-0.2694,-0.2627,-0.2419,-0.2463,-0.2384,-0.2319,-0.262,-0.2616,-0.2613,0,-0.2428,-0.2506,-0.2783,-0.2852,-0.2948,-0.3057,-0.3113,-0.3258,-0.3287,-0.3329,-0.3308,-0.3239,-0.3114,-0.2925,-0.2782,-0.2625,-0.2655,-0.2429,-0.2414,-0.2386,-0.2399,-0.2452,-0.2409,-0.2259,-0.2253,-0.2248,-0.2245,0,-0.2284,-0.238,-0.251,-0.2675,-0.2771,-0.2896,-0.2998,-0.303,-0.3154,-0.313,-0.3056,-0.2959,-0.2809,-0.2567,-0.2398,-0.2301,-0.2364,-0.232,-0.2321,-0.2136,-0.2163,-0.208,-0.2336,-0.2201,-0.2205,-0.2209,-0.2211,-0.2213,-0.2092,-0.2135,-0.2284,-0.2392,-0.2541,-0.2622,-0.2579,-0.2701,-0.2682,-0.2578,-0.2739,-0.2523,-0.2431,-0.214,-0.2041,-0.1868,-0.1994,-0.1824,-0.189,-0.1955,-0.1855,-0.2011,-0.1788,-0.179,-0.1792,-0.1793,-0.1794,0,-0.178,-0.184,-0.1962,-0.2081,-0.2117,-0.2297,-0.2373,-0.2245,-0.2099,-0.2174,-0.207,-0.2002,-0.1801,-0.1744,-0.1587,-0.1479,-0.1479,-0.1479,-0.1556,-0.1539,-0.168,-0.1623,-0.1314,-0.1314,-0.1315,-0.1315,-0.1315,-0.1315,-0.1604,-0.1559,-0.163,-0.1558,-0.1651,-0.1549,-0.1515,-0.143,-0.1392,-0.1246,-0.1236,-0.1252,-0.1419,-0.155,-0.1417,-0.1337,-0.1348,-0.1293,-0.1365,-0.1503,-0.1543,-0.158,-0.1533,-0.1211,-0.1211,-0.1152,-0.1152,-0.1152]},{"header":{"parameterUnit":"m.s-1","parameterCategory":2,"la1":30.2991,"la2":30.254,"lo1":-89.0895,"lo2":-89.0444,"dy":0.0017,"dx":0.0017,"nx":28,"ny":28,"refTime":"2025-11-18T03:00:00:Z","depth":"0","parameterNumber":3,"parameterNumberName":"V-component_of_CURRENTS"},"data":[0,0,0,0,0,0,0,0,0,0,0,0,0,0,0,0,0,0,0,0,0,0,0,0,0,0,0,0,0,0,0,0,0,0,0,0,0,0,0,0,0,0,0,0,0,0,0,0,0,0,0,0,0,0,0,0,0,0,0.1471,0.1472,0,0.1572,0.1573,0.1574,0.1622,0.1622,0.1622,0.1622,0.171,0.1712,0.1714,0,0,0,0,0,0,0,0,0,0,0,0,0,0.1476,0.1474,0.147,0.1472,0.1473,0.1572,0.1573,0.1575,0.1622,0.1622,0.1622,0.1621,0.1709,0.1712,0.1715,0,0,0,0,0,0,0,0,0,0,0,0,0,0.1514,0.1474,0.147,0.1509,0.1513,0.1572,0.1573,0.1575,0.1622,0.1622,0.1622,0.1621,0.1708,0.1711,0.1715,0.1739,0,0,0.1726,0.1727,0,0,0,0,0,0,0,0,0.1512,0.1514,0.1502,0.1506,0.1511,0.1584,0.1608,0.1629,0.1622,0.158,0.1622,0.1621,0.1667,0.1674,0.1693,0.1743,0.1747,0.1726,0.1728,0.173,0.1731,0,0,0,0,0,0,0,0.1509,0.1511,0.151,0.1503,0.1509,0.1575,0.1579,0.1613,0.1622,0.1584,0.1588,0.1599,0.1669,0.1689,0.1695,0.1748,0.1726,0.1729,0.1732,0.1733,0.1858,0.1859,0,0,0,0,0,0,0.1488,0.1507,0.1507,0.1513,0.1512,0.1575,0.1579,0.1561,0.1622,0.1632,0.1599,0.1601,0.1683,0.1691,0.1698,0.1761,0.173,0.1733,0.1735,0.1856,0.1858,0.1859,0,0,0,0,0,0,0.1487,0.1486,0.1503,0.1515,0.1522,0.1573,0.1553,0.1563,0.1578,0.1634,0.1643,0.1605,0.1683,0.1693,0.1734,0.1763,0.1735,0.1738,0.1855,0.1857,0.1859,0.1866,0,0,0,0,0,0,0.1487,0.1484,0.1467,0.1512,0.152,0.1525,0.1554,0.1565,0.1586,0.159,0.1642,0.165,0.1684,0.1729,0.1738,0.1768,0.1741,0.1854,0.1856,0.1858,0.1865,0.1868,0.1871,0,0,0,0,0,0.1486,0.1449,0.1465,0.1466,0.1492,0.1524,0.1534,0.1573,0.1586,0.1587,0.1635,0.1649,0.175,0.1733,0.1743,0.1775,0.1853,0.1855,0.1858,0.1863,0.1867,0.1871,0,0,0,0,0,0,0.1429,0.1452,0.147,0.1438,0.1478,0.1532,0.1529,0.1566,0.1605,0.1601,0.1659,0.1672,0.1723,0.1742,0.1723,0.1817,0.1805,0.181,0.1806,0.181,0.1813,0.1759,0.1744,0,0,0,0,0,0.1412,0.1388,0.1438,0.1408,0.1422,0.1478,0.1497,0.1524,0.1566,0.1582,0.1633,0.1684,0.1744,0.1768,0.1813,0.1856,0.1848,0.1885,0.1888,0.1891,0.1855,0.1905,0.1909,0.1868,0.1868,0.1868,0,0,0.1377,0.1388,0.1372,0.1396,0.1422,0.1441,0.1487,0.1497,0.1529,0.1585,0.1632,0.1692,0.1757,0.1817,0.1842,0.1835,0.1895,0.1894,0.1896,0.1857,0.1908,0.1912,0.1915,0.1869,0.1869,0.1869,0,0,0.1293,0.1307,0.1265,0.1303,0.1341,0.1393,0.1394,0.1456,0.1497,0.1554,0.1616,0.169,0.1763,0.1834,0.1876,0.192,0.1911,0.1935,0.1909,0.196,0.1963,0.1966,0.1937,0.1937,0.1937,0.1937,0.1937,0,0.1254,0.1208,0.1261,0.1252,0.1276,0.1367,0.1355,0.1422,0.1498,0.1535,0.1559,0.171,0.1776,0.187,0.1892,0.1928,0.1914,0.1892,0.1962,0.1965,0.1968,0.1938,0.1938,0.1938,0.1938,0.1938,0.1938,0,0.1153,0.1136,0.1115,0.114,0.1183,0.118,0.1288,0.1342,0.1413,0.1488,0.1589,0.1698,0.1777,0.1839,0.1878,0.1945,0.1912,0.1962,0.1947,0.1972,0.1939,0.1939,0.1939,0.1939,0.1938,0.1938,0,0,0.1016,0.1035,0.1027,0.1023,0.1122,0.1132,0.1216,0.1304,0.1333,0.1466,0.1511,0.1676,0.1731,0.1779,0.1866,0.1925,0.1951,0.1934,0.1936,0.189,0.1987,0.1898,0.1888,0.2008,0.2009,0.201,0.1947,0,0.0919,0.0841,0.0913,0.089,0.0869,0.1014,0.1074,0.1181,0.1289,0.1365,0.1533,0.1599,0.1714,0.1737,0.183,0.192,0.1952,0.1957,0.1979,0.1977,0.1887,0.1888,0.1884,0.1822,0.1947,0.1947,0.1947,0,0.0801,0.0766,0.0687,0.0742,0.0749,0.0773,0.0874,0.0947,0.112,0.1196,0.1332,0.1447,0.1583,0.1658,0.1825,0.1813,0.1874,0.1947,0.1948,0.1853,0.1888,0.1824,0.1817,0.197,0.1946,0.1946,0.1946,0,0.0637,0.0628,0.0544,0.056,0.0633,0.0647,0.0715,0.0871,0.0919,0.1071,0.1092,0.1304,0.1359,0.1523,0.1692,0.1745,0.1823,0.1929,0.1899,0.1891,0.1882,0.1871,0.2012,0.1999,0.1999,0.1999,0.2,0,0.0505,0.0457,0.0444,0.0401,0.0342,0.0469,0.0464,0.0571,0.0696,0.0734,0.0963,0.1012,0.1321,0.1434,0.1612,0.1721,0.1762,0.1856,0.1874,0.188,0.1871,0.1998,0.2068,0.1997,0.1998,0.1998,0.1998,0,0.0349,0.0338,0.025,0.0252,0.0252,0.0208,0.0292,0.0303,0.0428,0.0478,0.0508,0.0758,0.0925,0.1181,0.1416,0.1561,0.1773,0.1725,0.1662,0.1674,0.182,0.1888,0.194,0.2033,0.1704,0.1702,0.17,0,0.0269,0.0181,0.0094,0.0036,0.003,0.0002,0.0001,0.0141,0.0169,0.033,0.0331,0.0497,0.0671,0.0951,0.122,0.1458,0.1648,0.1551,0.1685,0.1787,0.1879,0.1939,0.2022,0.1671,0.1669,0.1667,0.1666,0,0.0127,0.0068,-0.0016,-0.0155,-0.0208,-0.0231,-0.0218,-0.0213,-0.0039,0.0052,0.0202,0.0349,0.0568,0.0876,0.1115,0.1284,0.1649,0.1517,0.1689,0.1887,0.1899,0.201,0.17,0.165,0.1652,0.1653,0.1654,0.1654,0.0034,-0.0074,-0.0198,-0.0311,-0.0377,-0.0381,-0.032,-0.0241,-0.0119,0.015,0.0146,0.0458,0.0643,0.1032,0.1178,0.1476,0.1528,0.1653,0.1724,0.1774,0.1875,0.1459,0.1397,0.1397,0.1397,0.1397,0.1397,0,-0.0031,-0.0157,-0.0309,-0.0405,-0.0458,-0.0455,-0.0392,-0.0241,0.0007,0.0199,0.0417,0.073,0.0996,0.1237,0.1543,0.1718,0.1833,0.1828,0.1989,0.2073,0.1768,0.1782,0.1721,0.1721,0.1721,0.1721,0.1721,0.1721,-0.0068,-0.023,-0.0321,-0.0426,-0.0465,-0.0391,-0.0292,-0.0034,0.0173,0.0608,0.0911,0.1047,0.1283,0.1676,0.1999,0.2037,0.2281,0.219,0.2344,0.2214,0.2208,0.2201,0.2237,0.2272,0.2273,0.2674,0.2677,0.268]}],[{"header":{"parameterUnit":"m.s-1","parameterCategory":2,"la1":30.2991,"la2":30.254,"lo1":-89.0895,"lo2":-89.0444,"dy":0.0017,"dx":0.0017,"nx":28,"ny":28,"refTime":"2025-11-18T03:00:00:Z","depth":"2","parameterNumber":2,"parameterNumberName":"U-component_of_CURRENTS"},"data":[0,0,0,0,0,0,0,0,0,0,0,0,0,0,0,0,0,0,0,0,0,0,0,0,0,0,0,0,0,0,0,0,0,0,0,0,0,0,0,0,0,0,0,0,0,0,0,0,0,0,0,0,0,0,0,0,0,0,-0.2929,-0.2929,0,-0.2994,-0.2996,-0.2998,-0.3089,-0.3089,-0.309,-0.309,-0.2996,-0.2993,-0.2991,0,0,0,0,0,0,0,0,0,0,0,0,0,-0.2814,-0.2818,-0.2929,-0.2929,-0.2928,-0.2994,-0.2996,-0.2998,-0.3089,-0.3089,-0.309,-0.309,-0.2997,-0.2994,-0.299,0,0,0,0,0,0,0,0,0,0,0,0,0,-0.2884,-0.2819,-0.2929,-0.2971,-0.2974,-0.2993,-0.2996,-0.2999,-0.3089,-0.3089,-0.309,-0.309,-0.2998,-0.2994,-0.299,-0.2958,0,0,-0.2978,-0.2976,0,0,0,0,0,0,0,0,-0.288,-0.289,-0.2965,-0.2968,-0.2971,-0.3021,-0.292,-0.2972,-0.3089,-0.3061,-0.309,-0.309,-0.298,-0.2977,-0.3012,-0.2954,-0.295,-0.2977,-0.2975,-0.2973,-0.2972,0,0,0,0,0,0,0,-0.2876,-0.2887,-0.297,-0.2964,-0.2968,-0.2961,-0.2974,-0.2932,-0.3026,-0.3063,-0.3066,-0.305,-0.2983,-0.3016,-0.3009,-0.2948,-0.2977,-0.2974,-0.2971,-0.297,-0.2861,-0.286,0,0,0,0,0,0,-0.2842,-0.2884,-0.2967,-0.297,-0.2909,-0.2962,-0.2977,-0.3017,-0.303,-0.3029,-0.305,-0.3054,-0.3023,-0.3014,-0.3006,-0.2983,-0.2973,-0.2969,-0.2967,-0.2861,-0.2861,-0.286,0,0,0,0,0,0,-0.2841,-0.2852,-0.2965,-0.2913,-0.2925,-0.2962,-0.3007,-0.3017,-0.3081,-0.3019,-0.3019,-0.3103,-0.3023,-0.3012,-0.299,-0.2979,-0.2967,-0.2964,-0.2862,-0.2861,-0.2861,-0.2925,0,0,0,0,0,0,-0.2838,-0.2852,-0.2877,-0.2913,-0.2926,-0.3022,-0.3005,-0.3018,-0.3061,-0.3069,-0.3063,-0.3054,-0.3022,-0.2996,-0.2986,-0.2973,-0.2961,-0.2862,-0.2862,-0.2861,-0.2924,-0.2927,-0.293,0,0,0,0,0,-0.2835,-0.2902,-0.288,-0.2888,-0.2959,-0.3023,-0.3034,-0.3067,-0.3063,-0.3122,-0.3088,-0.3056,-0.2982,-0.2994,-0.2981,-0.2966,-0.2863,-0.2862,-0.2861,-0.2923,-0.2926,-0.293,0,0,0,0,0,0,-0.2814,-0.2916,-0.2893,-0.2969,-0.2994,-0.3034,-0.3076,-0.3085,-0.3113,-0.3103,-0.306,-0.3049,-0.302,-0.2986,-0.2999,-0.293,-0.2912,-0.2909,-0.2963,-0.2967,-0.297,-0.2974,-0.2957,0,0,0,0,0,-0.282,-0.2949,-0.2957,-0.3018,-0.3028,-0.3048,-0.3074,-0.309,-0.3103,-0.3122,-0.309,-0.3044,-0.3002,-0.2984,-0.2943,-0.2914,-0.2891,-0.2891,-0.2895,-0.2897,-0.2891,-0.2871,-0.2872,-0.2857,-0.2857,-0.2857,0,0,-0.2807,-0.2892,-0.2942,-0.3028,-0.3048,-0.3065,-0.3074,-0.3127,-0.3128,-0.3093,-0.3089,-0.3054,-0.2997,-0.2965,-0.2947,-0.2939,-0.289,-0.2896,-0.2899,-0.2891,-0.287,-0.2872,-0.2873,-0.2856,-0.2856,-0.2856,0,0,-0.2861,-0.2931,-0.303,-0.3062,-0.3104,-0.3114,-0.3131,-0.3155,-0.3166,-0.3148,-0.3108,-0.3078,-0.3017,-0.2981,-0.295,-0.2942,-0.2907,-0.2921,-0.2941,-0.2922,-0.2924,-0.2925,-0.2907,-0.2906,-0.2924,-0.2924,-0.2924,0,-0.2842,-0.2945,-0.3051,-0.3113,-0.3118,-0.3134,-0.3148,-0.3164,-0.3168,-0.3156,-0.3148,-0.3061,-0.302,-0.2974,-0.297,-0.2949,-0.2936,-0.2938,-0.2929,-0.2929,-0.2929,-0.2911,-0.2909,-0.2927,-0.2927,-0.2926,-0.2926,0,-0.2927,-0.2985,-0.3041,-0.3135,-0.3165,-0.32,-0.3189,-0.3206,-0.319,-0.3173,-0.3135,-0.3089,-0.3042,-0.3018,-0.2988,-0.296,-0.2951,-0.2939,-0.2928,-0.2935,-0.2915,-0.2912,-0.2931,-0.293,-0.2929,-0.2929,0,0,-0.2983,-0.3082,-0.3102,-0.3103,-0.3173,-0.32,-0.3207,-0.3208,-0.3198,-0.3179,-0.3159,-0.3095,-0.308,-0.3044,-0.3008,-0.2985,-0.2977,-0.2966,-0.2964,-0.2963,-0.2941,-0.2772,-0.2752,-0.2973,-0.2973,-0.2972,-0.2931,0,-0.3007,-0.3086,-0.3149,-0.3172,-0.318,-0.3203,-0.3207,-0.3209,-0.32,-0.3185,-0.3144,-0.3107,-0.3087,-0.3064,-0.3045,-0.2986,-0.297,-0.2989,-0.292,-0.2918,-0.2778,-0.2743,-0.2552,-0.2484,-0.2928,-0.2927,-0.2927,0,-0.3069,-0.3119,-0.3129,-0.3162,-0.3168,-0.3178,-0.319,-0.3197,-0.319,-0.3182,-0.3165,-0.3139,-0.31,-0.3083,-0.3017,-0.3034,-0.2994,-0.2953,-0.2951,-0.2764,-0.2741,-0.2543,-0.2461,-0.2921,-0.2922,-0.2922,-0.2922,0,-0.3048,-0.3113,-0.3114,-0.3124,-0.3153,-0.3157,-0.3174,-0.3184,-0.3179,-0.318,-0.317,-0.3146,-0.3105,-0.3076,-0.2995,-0.3015,-0.2911,-0.2932,-0.2746,-0.2736,-0.2539,-0.2509,-0.2887,-0.2887,-0.2887,-0.2887,-0.2888,0,-0.3066,-0.3074,-0.3093,-0.309,-0.3083,-0.3127,-0.3124,-0.314,-0.3155,-0.3119,-0.3161,-0.3099,-0.3098,-0.3038,-0.2999,-0.2838,-0.2919,-0.2727,-0.2699,-0.2553,-0.2527,-0.2878,-0.2877,-0.2886,-0.2886,-0.2886,-0.2887,0,-0.3026,-0.305,-0.3041,-0.3057,-0.3063,-0.3052,-0.3084,-0.3079,-0.3114,-0.3073,-0.3071,-0.3056,-0.2951,-0.2937,-0.2852,-0.2793,-0.2694,-0.2623,-0.2446,-0.2394,-0.2544,-0.2548,-0.2426,-0.2419,-0.2413,-0.2409,-0.2405,0,-0.2998,-0.2988,-0.2987,-0.2973,-0.2974,-0.2978,-0.2978,-0.3034,-0.3025,-0.2996,-0.2954,-0.2877,-0.2721,-0.2564,-0.2464,-0.2358,-0.2502,-0.2149,-0.2131,-0.2504,-0.2491,-0.2503,-0.2513,-0.192,-0.1912,-0.1906,-0.1901,0,-0.2925,-0.2924,-0.2908,-0.2865,-0.2857,-0.2854,-0.2857,-0.2837,-0.2868,-0.2788,-0.2624,-0.2494,-0.2346,-0.2095,-0.2007,-0.1938,-0.2154,-0.2012,-0.2437,-0.2047,-0.2017,-0.2008,-0.2037,-0.1846,-0.1851,-0.1855,-0.1858,-0.1861,-0.2851,-0.2808,-0.2774,-0.2727,-0.2728,-0.2683,-0.2597,-0.2577,-0.2461,-0.2279,-0.2292,-0.203,-0.1971,-0.1662,-0.1565,-0.1547,-0.1695,-0.1672,-0.1696,-0.1725,-0.1655,-0.1613,-0.1355,-0.1358,-0.136,-0.1362,-0.1364,0,-0.2726,-0.2685,-0.2637,-0.2555,-0.2486,-0.2542,-0.247,-0.2299,-0.2045,-0.1957,-0.1751,-0.1463,-0.1279,-0.1284,-0.1133,-0.1088,-0.1138,-0.108,-0.1165,-0.1218,-0.1265,-0.1178,-0.0748,-0.0747,-0.0745,-0.0744,0,0,-0.2652,-0.2555,-0.2512,-0.2326,-0.2274,-0.2096,-0.2006,-0.1722,-0.1582,-0.128,-0.1153,-0.1183,-0.1196,-0.0963,-0.0904,-0.0809,-0.1015,-0.0767,-0.1253,-0.1403,-0.1449,-0.1585,-0.1504,0,0,0,0,0]},{"header":{"parameterUnit":"m.s-1","parameterCategory":2,"la1":30.2991,"la2":30.254,"lo1":-89.0895,"lo2":-89.0444,"dy":0.0017,"dx":0.0017,"nx":28,"ny":28,"refTime":"2025-11-18T03:00:00:Z","depth":"2","parameterNumber":3,"parameterNumberName":"V-component_of_CURRENTS"},"data":[0,0,0,0,0,0,0,0,0,0,0,0,0,0,0,0,0,0,0,0,0,0,0,0,0,0,0,0,0,0,0,0,0,0,0,0,0,0,0,0,0,0,0,0,0,0,0,0,0,0,0,0,0,0,0,0,0,0,-0.0509,-0.0508,0,-0.0382,-0.038,-0.0378,-0.029,-0.029,-0.0289,-0.0289,-0.0094,-0.0089,-0.0084,0,0,0,0,0,0,0,0,0,0,0,0,0,-0.0647,-0.0645,-0.0509,-0.0508,-0.0506,-0.0382,-0.038,-0.0378,-0.029,-0.029,-0.0289,-0.0289,-0.0095,-0.009,-0.0084,0,0,0,0,0,0,0,0,0,0,0,0,0,-0.0557,-0.0644,-0.0509,-0.045,-0.0443,-0.0382,-0.038,-0.0377,-0.029,-0.029,-0.0289,-0.0288,-0.0097,-0.009,-0.0083,-0.005,0,0,-0.0061,-0.0058,0,0,0,0,0,0,0,0,-0.0563,-0.0552,-0.046,-0.0454,-0.0447,-0.0354,-0.0357,-0.0265,-0.029,-0.0345,-0.0289,-0.0288,-0.0177,-0.0163,-0.0137,-0.0041,-0.0033,-0.006,-0.0056,-0.0053,-0.0051,0,0,0,0,0,0,0,-0.0569,-0.0557,-0.0455,-0.0459,-0.045,-0.042,-0.0406,-0.0339,-0.0262,-0.034,-0.0334,-0.0325,-0.0172,-0.0144,-0.0132,-0.003,-0.0061,-0.0054,-0.005,-0.0047,0.0133,0.0134,0,0,0,0,0,0,-0.0593,-0.0563,-0.0459,-0.0452,-0.0508,-0.0418,-0.0403,-0.0382,-0.0264,-0.0247,-0.0326,-0.0322,-0.0157,-0.014,-0.0124,-0.0057,-0.0053,-0.0046,-0.0042,0.0133,0.0133,0.0134,0,0,0,0,0,0,-0.0596,-0.0584,-0.0465,-0.0508,-0.0491,-0.0417,-0.0393,-0.038,-0.0332,-0.0255,-0.0235,-0.0292,-0.0156,-0.0135,-0.0051,-0.0049,-0.0043,-0.0036,0.0132,0.0133,0.0134,0.0065,0,0,0,0,0,0,-0.06,-0.0586,-0.0585,-0.0509,-0.0489,-0.0413,-0.0394,-0.0378,-0.033,-0.0323,-0.0219,-0.0202,-0.0154,-0.0063,-0.0044,-0.0039,-0.0031,0.0132,0.0133,0.0133,0.0067,0.0063,0.006,0,0,0,0,0,-0.0605,-0.0582,-0.0585,-0.0573,-0.0488,-0.0412,-0.0398,-0.0343,-0.033,-0.03,-0.0238,-0.0204,-0.0045,-0.0056,-0.0034,-0.0028,0.0131,0.0132,0.0133,0.0068,0.0064,0.0061,0,0,0,0,0,0,-0.0633,-0.057,-0.0571,-0.053,-0.048,-0.0398,-0.0366,-0.0337,-0.0265,-0.026,-0.0186,-0.0163,-0.0097,-0.0047,-0.0061,0.0026,0.0045,0.005,-0.0012,-0.0015,-0.0019,-0.0032,-0.0025,0,0,0,0,0,-0.0648,-0.0613,-0.0558,-0.0525,-0.0501,-0.0439,-0.0405,-0.0373,-0.0302,-0.0269,-0.0206,-0.0139,-0.0079,-0.0035,0.0023,0.0085,0.0162,0.01,0.0097,0.0094,0.0097,0.0213,0.0221,0.0137,0.0137,0.0137,0,0,-0.0666,-0.0613,-0.0606,-0.0531,-0.0485,-0.0459,-0.0413,-0.0357,-0.0337,-0.026,-0.0203,-0.0146,-0.0067,-0.0009,0.0025,0.0038,0.0161,0.0095,0.0092,0.0097,0.0215,0.0224,0.0231,0.0138,0.0138,0.0138,0,0,-0.0666,-0.062,-0.0605,-0.0562,-0.0499,-0.0458,-0.0443,-0.037,-0.0332,-0.0277,-0.0227,-0.016,-0.0067,-0.0011,0.0029,0.0051,0.0135,0.006,0.0043,0.0155,0.0163,0.0171,0.029,0.031,0.0064,0.0064,0.0064,0,-0.0697,-0.066,-0.0588,-0.0558,-0.0532,-0.0462,-0.0452,-0.0401,-0.0317,-0.0284,-0.0267,-0.0129,-0.0068,0.0013,0.0008,0.0044,0.0123,0.0047,0.0151,0.0161,0.017,0.029,0.0312,0.0061,0.0061,0.0062,0.0062,0,-0.0691,-0.0672,-0.0643,-0.0595,-0.0554,-0.0519,-0.046,-0.0415,-0.0372,-0.0328,-0.0241,-0.0153,-0.0067,-0.0046,-0.0013,0.0074,0.0115,0.0127,0.0157,0.0174,0.03,0.0324,0.0057,0.0058,0.0059,0.0059,0,0,-0.0732,-0.0666,-0.0656,-0.0654,-0.0574,-0.0536,-0.0495,-0.0431,-0.0395,-0.032,-0.0254,-0.0168,-0.0117,-0.0068,-0.0009,0.008,0.0209,0.0121,0.0129,0.0234,0.0472,0.0301,0.0312,0.0239,0.0243,0.0246,0.0537,0,-0.0757,-0.0737,-0.0682,-0.067,-0.0664,-0.0584,-0.0546,-0.0481,-0.041,-0.0327,-0.0224,-0.0144,-0.0125,-0.0077,0.0012,0.0162,0.0267,0.0129,0.0446,0.0456,0.0296,0.0332,0.0299,0.0536,0.0562,0.0566,0.0569,0,-0.0778,-0.0756,-0.0767,-0.0717,-0.0702,-0.0683,-0.0597,-0.0552,-0.0425,-0.0365,-0.0266,-0.0175,-0.0034,-0.0021,0.0252,0.0163,0.0307,0.0423,0.0438,0.0316,0.0327,0.0524,0.058,0.061,0.0607,0.0604,0.0601,0,-0.0853,-0.081,-0.0823,-0.0808,-0.0746,-0.0725,-0.0678,-0.0574,-0.0519,-0.038,-0.031,-0.0147,-0.0026,0.0154,0.0359,0.033,0.0668,0.0669,0.0664,0.0656,0.0707,0.0693,0.0874,0.0873,0.0873,0.0872,0.0871,0,-0.0905,-0.0907,-0.0863,-0.0872,-0.0864,-0.0791,-0.0751,-0.0681,-0.0559,-0.0476,-0.0337,-0.0235,0.0025,0.0232,0.0397,0.0589,0.071,0.0669,0.0713,0.0677,0.0658,0.0775,0.076,0.0883,0.088,0.0878,0.0876,0,-0.0997,-0.097,-0.098,-0.0929,-0.0911,-0.0906,-0.0811,-0.0763,-0.0647,-0.0523,-0.0472,-0.0245,-0.0024,0.0221,0.0552,0.0635,0.0839,0.0884,0.0808,0.0829,0.0757,0.0735,0.0919,0.0915,0.0912,0.0909,0.0907,0,-0.1054,-0.1072,-0.1039,-0.1041,-0.1023,-0.099,-0.0951,-0.0832,-0.0764,-0.0541,-0.0474,-0.0242,-0.0126,0.0253,0.0475,0.0731,0.0791,0.0843,0.0731,0.0734,0.076,0.0743,0.0726,0.0832,0.0829,0.0827,0.0825,0,-0.1155,-0.1137,-0.1136,-0.1147,-0.1124,-0.1077,-0.1007,-0.0972,-0.0796,-0.0706,-0.0559,-0.0464,-0.0132,0.0089,0.0389,0.0536,0.0771,0.0791,0.0917,0.0735,0.065,0.0673,0.0662,0.0806,0.0808,0.0809,0.081,0.0811,-0.1224,-0.1243,-0.124,-0.1248,-0.121,-0.116,-0.1135,-0.105,-0.0978,-0.0808,-0.0664,-0.0488,-0.0223,0.0108,0.034,0.0579,0.0566,0.0668,0.0679,0.0691,0.0538,0.0441,0.0536,0.0536,0.0536,0.0537,0.0537,0,-0.1325,-0.1326,-0.1337,-0.1328,-0.1301,-0.1244,-0.1158,-0.1107,-0.1058,-0.0885,-0.0767,-0.0467,-0.0239,0.005,0.0363,0.0508,0.0583,0.0559,0.0658,0.0672,0.0687,0.0537,0.0535,0.0536,0.0536,0.0537,0,0,-0.1377,-0.1423,-0.1421,-0.1422,-0.1387,-0.1325,-0.128,-0.1187,-0.106,-0.0933,-0.0773,-0.0563,-0.0243,-0.0005,0.0217,0.0388,0.0493,0.0406,0.0384,0.0485,0.0498,0.0714,0.0491,0,0,0,0,0]}],[{"header":{"parameterUnit":"m.s-1","parameterCategory":2,"la1":30.2991,"la2":30.254,"lo1":-89.0895,"lo2":-89.0444,"dy":0.0017,"dx":0.0017,"nx":28,"ny":28,"refTime":"2025-11-18T03:00:00:Z","depth":"4","parameterNumber":2,"parameterNumberName":"U-component_of_CURRENTS"},"data":[0,0,0,0,0,0,0,0,0,0,0,0,0,0,0,0,0,0,0,0,0,0,0,0,0,0,0,0,0,0,0,0,0,0,0,0,0,0,0,0,0,0,0,0,0,0,0,0,0,0,0,0,0,0,0,0,0,0,-0.1083,-0.1085,0,-0.1213,-0.1214,-0.1215,-0.1265,-0.1265,-0.1265,-0.1266,-0.1327,-0.1329,-0.133,0,0,0,0,0,0,0,0,0,0,0,0,0,-0.0997,-0.0997,-0.1083,-0.1086,-0.1088,-0.1213,-0.1214,-0.1215,-0.1265,-0.1265,-0.1265,-0.1266,-0.1327,-0.1329,-0.133,0,0,0,0,0,0,0,0,0,0,0,0,0,-0.1065,-0.0997,-0.1083,-0.1133,-0.1139,-0.1213,-0.1214,-0.1216,-0.1265,-0.1265,-0.1266,-0.1266,-0.1326,-0.1328,-0.133,-0.1335,0,0,-0.1337,-0.1338,0,0,0,0,0,0,0,0,-0.1061,-0.1067,-0.1123,-0.113,-0.1137,-0.123,-0.1207,-0.1255,-0.1265,-0.121,-0.1266,-0.1266,-0.1293,-0.1298,-0.1312,-0.1338,-0.1341,-0.1337,-0.1338,-0.1339,-0.134,0,0,0,0,0,0,0,-0.1056,-0.1062,-0.1128,-0.1126,-0.1134,-0.119,-0.1198,-0.1217,-0.124,-0.1214,-0.122,-0.1246,-0.1295,-0.131,-0.1314,-0.1342,-0.1337,-0.1339,-0.134,-0.1341,-0.1446,-0.1447,0,0,0,0,0,0,-0.1047,-0.1057,-0.1124,-0.1132,-0.1107,-0.1191,-0.12,-0.1194,-0.1242,-0.1252,-0.1245,-0.1248,-0.1306,-0.1311,-0.1316,-0.1406,-0.1339,-0.1341,-0.1342,-0.1444,-0.1446,-0.1448,0,0,0,0,0,0,-0.1044,-0.105,-0.1118,-0.1106,-0.1119,-0.1192,-0.1185,-0.1196,-0.1237,-0.1268,-0.1275,-0.1278,-0.1307,-0.1313,-0.1347,-0.1406,-0.1342,-0.1344,-0.1442,-0.1445,-0.1447,-0.1534,0,0,0,0,0,0,-0.104,-0.1047,-0.1059,-0.1103,-0.112,-0.1157,-0.1186,-0.1199,-0.1254,-0.1259,-0.1298,-0.1303,-0.1307,-0.1344,-0.1349,-0.1407,-0.1346,-0.144,-0.1443,-0.1446,-0.1529,-0.1539,-0.1547,0,0,0,0,0,-0.1036,-0.1048,-0.1058,-0.1069,-0.1125,-0.1158,-0.117,-0.1221,-0.1255,-0.1261,-0.1299,-0.1303,-0.1367,-0.1346,-0.1352,-0.1413,-0.1439,-0.1443,-0.1446,-0.1525,-0.1537,-0.1547,0,0,0,0,0,0,-0.1035,-0.1056,-0.1068,-0.109,-0.1119,-0.1169,-0.1195,-0.1235,-0.1273,-0.1294,-0.1314,-0.132,-0.1372,-0.1373,-0.1351,-0.1449,-0.1407,-0.1412,-0.1466,-0.1477,-0.1486,-0.1436,-0.1347,0,0,0,0,0,-0.1035,-0.1039,-0.107,-0.1093,-0.1097,-0.115,-0.1182,-0.1221,-0.126,-0.1279,-0.129,-0.1329,-0.1388,-0.1415,-0.1431,-0.1485,-0.1459,-0.1529,-0.1538,-0.1546,-0.1508,-0.1551,-0.1561,-0.1459,-0.1459,-0.1459,0,0,-0.105,-0.1062,-0.1071,-0.1093,-0.1115,-0.1124,-0.1167,-0.1218,-0.1254,-0.1279,-0.1305,-0.1348,-0.1403,-0.1462,-0.1488,-0.1476,-0.156,-0.155,-0.1557,-0.1514,-0.1556,-0.1566,-0.1574,-0.1461,-0.1461,-0.146,0,0,-0.1061,-0.1073,-0.1068,-0.1088,-0.1131,-0.1144,-0.116,-0.1197,-0.1237,-0.1284,-0.1327,-0.1386,-0.1442,-0.1492,-0.1538,-0.1601,-0.1596,-0.1638,-0.1662,-0.1707,-0.1715,-0.1722,-0.1693,-0.1697,-0.1657,-0.1658,-0.1658,0,-0.1075,-0.1074,-0.108,-0.1083,-0.1104,-0.1144,-0.1152,-0.1199,-0.125,-0.1287,-0.1294,-0.1412,-0.1452,-0.1569,-0.1603,-0.1622,-0.1626,-0.1626,-0.1718,-0.1725,-0.173,-0.1699,-0.1702,-0.1662,-0.1662,-0.1661,-0.1661,0,-0.1069,-0.1089,-0.1088,-0.108,-0.1094,-0.1121,-0.116,-0.119,-0.1239,-0.1288,-0.1387,-0.1447,-0.1525,-0.1573,-0.1617,-0.171,-0.1691,-0.1717,-0.169,-0.1746,-0.1709,-0.1711,-0.1669,-0.1667,-0.1666,-0.1665,0,0,-0.1037,-0.1073,-0.1078,-0.1086,-0.1106,-0.1114,-0.1159,-0.1206,-0.126,-0.1324,-0.1388,-0.1516,-0.1566,-0.1616,-0.1695,-0.1735,-0.1792,-0.1757,-0.1757,-0.1723,-0.1853,-0.1717,-0.1705,-0.1865,-0.1866,-0.1867,-0.1808,0,-0.1025,-0.1036,-0.1056,-0.107,-0.1064,-0.1114,-0.1149,-0.1215,-0.127,-0.1327,-0.1448,-0.1527,-0.1592,-0.1659,-0.1723,-0.1768,-0.1802,-0.1801,-0.1804,-0.1801,-0.1673,-0.1704,-0.1871,-0.1809,-0.1809,-0.181,-0.181,0,-0.0996,-0.1007,-0.1019,-0.1067,-0.1069,-0.1092,-0.1142,-0.119,-0.1296,-0.1354,-0.1461,-0.1536,-0.1641,-0.1675,-0.1774,-0.1785,-0.1821,-0.1834,-0.1834,-0.1664,-0.1668,-0.1743,-0.1811,-0.1811,-0.1811,-0.1811,-0.1811,0,-0.0934,-0.0982,-0.099,-0.1007,-0.1055,-0.1094,-0.1125,-0.1206,-0.1244,-0.1367,-0.1397,-0.1542,-0.1592,-0.1686,-0.1745,-0.1783,-0.1791,-0.185,-0.1743,-0.1732,-0.1834,-0.1827,-0.1893,-0.1893,-0.1893,-0.1893,-0.1893,0,-0.0893,-0.0911,-0.0982,-0.0984,-0.1012,-0.1069,-0.1112,-0.1172,-0.1251,-0.1279,-0.1421,-0.1457,-0.16,-0.164,-0.172,-0.1707,-0.1787,-0.1711,-0.1711,-0.187,-0.1868,-0.1833,-0.1827,-0.1891,-0.1891,-0.1892,-0.1892,0,-0.083,-0.0875,-0.0887,-0.0955,-0.0979,-0.1001,-0.107,-0.1107,-0.1194,-0.1225,-0.1262,-0.1372,-0.1427,-0.1519,-0.1604,-0.1622,-0.1651,-0.1629,-0.172,-0.1732,-0.1564,-0.1564,-0.1503,-0.1498,-0.1493,-0.149,-0.1486,0,-0.0806,-0.0807,-0.0846,-0.085,-0.0888,-0.0939,-0.0972,-0.1064,-0.1088,-0.1165,-0.1168,-0.1227,-0.1305,-0.1297,-0.1417,-0.1492,-0.1515,-0.1494,-0.1589,-0.1519,-0.1527,-0.1533,-0.1539,-0.1479,-0.1478,-0.1477,-0.1476,0,-0.0753,-0.0771,-0.0772,-0.0775,-0.0805,-0.082,-0.0877,-0.0881,-0.0976,-0.1047,-0.1061,-0.1109,-0.1128,-0.1214,-0.1239,-0.1324,-0.1496,-0.1449,-0.1461,-0.155,-0.149,-0.1504,-0.1514,-0.1461,-0.1463,-0.1464,-0.1465,0,-0.0715,-0.0702,-0.0704,-0.0698,-0.0717,-0.0709,-0.0748,-0.0791,-0.0822,-0.0925,-0.0914,-0.1015,-0.1083,-0.1121,-0.1174,-0.1204,-0.1239,-0.125,-0.1274,-0.1292,-0.126,-0.1156,-0.0998,0,0,0,0,0,-0.0678,-0.0649,-0.0634,-0.0605,-0.0616,-0.0623,-0.0686,-0.0738,-0.0827,-0.0806,-0.0861,-0.0899,-0.0957,-0.1017,-0.1018,-0.1104,-0.1245,-0.1102,-0.1269,-0.1376,-0.1393,-0.1382,0,0,0,0,0,0,-0.0646,-0.0631,-0.0607,-0.0537,-0.0501,-0.0506,-0.0543,-0.0599,-0.0612,-0.0709,-0.0757,-0.0827,-0.0911,-0.0928,-0.0986,-0.1005,-0.1094,-0.1166,-0.1164,-0.1366,-0.1382,-0.1396,-0.139,0,0,0,0,0]},{"header":{"parameterUnit":"m.s-1","parameterCategory":2,"la1":30.2991,"la2":30.254,"lo1":-89.0895,"lo2":-89.0444,"dy":0.0017,"dx":0.0017,"nx":28,"ny":28,"refTime":"2025-11-18T03:00:00:Z","depth":"4","parameterNumber":3,"parameterNumberName":"V-component_of_CURRENTS"},"data":[0,0,0,0,0,0,0,0,0,0,0,0,0,0,0,0,0,0,0,0,0,0,0,0,0,0,0,0,0,0,0,0,0,0,0,0,0,0,0,0,0,0,0,0,0,0,0,0,0,0,0,0,0,0,0,0,0,0,-0.0591,-0.0591,0,-0.0605,-0.0606,-0.0606,-0.0586,-0.0585,-0.0584,-0.0584,-0.0569,-0.057,-0.057,0,0,0,0,0,0,0,0,0,0,0,0,0,-0.0542,-0.0544,-0.0591,-0.0591,-0.0591,-0.0605,-0.0606,-0.0606,-0.0586,-0.0585,-0.0584,-0.0583,-0.0569,-0.057,-0.057,0,0,0,0,0,0,0,0,0,0,0,0,0,-0.0563,-0.0544,-0.0591,-0.0581,-0.0581,-0.0605,-0.0606,-0.0606,-0.0587,-0.0585,-0.0584,-0.0583,-0.0569,-0.057,-0.057,-0.0601,0,0,-0.0572,-0.0573,0,0,0,0,0,0,0,0,-0.0561,-0.0565,-0.0583,-0.0582,-0.0581,-0.0591,-0.0583,-0.0602,-0.0587,-0.0586,-0.0584,-0.0582,-0.0574,-0.0574,-0.0583,-0.06,-0.0599,-0.0572,-0.0573,-0.0573,-0.0573,0,0,0,0,0,0,0,-0.056,-0.0564,-0.0598,-0.0583,-0.0582,-0.0575,-0.0577,-0.0587,-0.0588,-0.0586,-0.0584,-0.0583,-0.0573,-0.0582,-0.0582,-0.0599,-0.0572,-0.0573,-0.0573,-0.0574,-0.0635,-0.0636,0,0,0,0,0,0,-0.0557,-0.0563,-0.0598,-0.0599,-0.0566,-0.0577,-0.0579,-0.0591,-0.0589,-0.0587,-0.0585,-0.0582,-0.0582,-0.0581,-0.0581,-0.0617,-0.0573,-0.0574,-0.0574,-0.0634,-0.0635,-0.0637,0,0,0,0,0,0,-0.0556,-0.056,-0.0597,-0.0578,-0.0582,-0.0579,-0.0592,-0.0592,-0.0604,-0.0587,-0.0585,-0.0598,-0.0581,-0.058,-0.0595,-0.0616,-0.0574,-0.0575,-0.0632,-0.0634,-0.0636,-0.0689,0,0,0,0,0,0,-0.0555,-0.056,-0.0574,-0.0579,-0.0583,-0.0619,-0.0593,-0.0593,-0.0604,-0.0602,-0.0598,-0.0595,-0.058,-0.0594,-0.0595,-0.0616,-0.0575,-0.0631,-0.0633,-0.0635,-0.0686,-0.0692,-0.0698,0,0,0,0,0,-0.0553,-0.0573,-0.0575,-0.0579,-0.06,-0.0619,-0.0622,-0.0615,-0.0606,-0.0621,-0.0614,-0.0595,-0.0609,-0.0596,-0.0597,-0.0619,-0.063,-0.0633,-0.0635,-0.0683,-0.0691,-0.0698,0,0,0,0,0,0,-0.0556,-0.0573,-0.0574,-0.0598,-0.0611,-0.0615,-0.0629,-0.0626,-0.0635,-0.0634,-0.0614,-0.0612,-0.0631,-0.0623,-0.0608,-0.0644,-0.0616,-0.0619,-0.0652,-0.0659,-0.0666,-0.0671,-0.0576,0,0,0,0,0,-0.0565,-0.059,-0.0598,-0.0622,-0.0628,-0.0634,-0.0642,-0.0642,-0.0646,-0.0649,-0.0651,-0.0649,-0.0646,-0.0649,-0.0652,-0.0677,-0.0651,-0.0692,-0.0698,-0.0703,-0.0709,-0.0691,-0.0695,-0.0646,-0.0646,-0.0646,0,0,-0.0578,-0.0587,-0.0604,-0.0625,-0.0636,-0.0658,-0.0637,-0.0658,-0.0679,-0.0647,-0.0685,-0.0675,-0.0658,-0.068,-0.0688,-0.0674,-0.0703,-0.0707,-0.0711,-0.0714,-0.0694,-0.0699,-0.0703,-0.0648,-0.0647,-0.0647,0,0,-0.0604,-0.0621,-0.0645,-0.0663,-0.068,-0.0685,-0.0694,-0.0713,-0.0721,-0.0752,-0.0729,-0.0741,-0.0747,-0.0744,-0.0738,-0.0786,-0.0737,-0.0779,-0.0816,-0.0798,-0.0802,-0.0804,-0.0771,-0.077,-0.0782,-0.0782,-0.0782,0,-0.0617,-0.0648,-0.0656,-0.0681,-0.0702,-0.07,-0.0731,-0.0744,-0.0768,-0.0778,-0.077,-0.0783,-0.0782,-0.0789,-0.0804,-0.0802,-0.0766,-0.0786,-0.0805,-0.0807,-0.0809,-0.0774,-0.0772,-0.0785,-0.0785,-0.0784,-0.0784,0,-0.0658,-0.0687,-0.0704,-0.0739,-0.0762,-0.0793,-0.0807,-0.0832,-0.0841,-0.0848,-0.0869,-0.0866,-0.0871,-0.0872,-0.0852,-0.0866,-0.0826,-0.0813,-0.0783,-0.0817,-0.0778,-0.0775,-0.0789,-0.0788,-0.0787,-0.0787,0,0,-0.0676,-0.0725,-0.0732,-0.0756,-0.0799,-0.0819,-0.0859,-0.0887,-0.0905,-0.0925,-0.0951,-0.0958,-0.0949,-0.0943,-0.0922,-0.091,-0.0902,-0.0866,-0.0864,-0.0827,-0.0835,-0.0717,-0.0703,-0.0875,-0.0875,-0.0875,-0.0799,0,-0.0707,-0.0758,-0.0781,-0.0839,-0.0866,-0.0889,-0.0927,-0.0953,-0.0966,-0.0992,-0.0984,-0.1004,-0.0975,-0.0979,-0.0963,-0.0922,-0.0898,-0.0922,-0.0813,-0.081,-0.0696,-0.0698,-0.0876,-0.0797,-0.0796,-0.0796,-0.0796,0,-0.0738,-0.0765,-0.0828,-0.0883,-0.0899,-0.094,-0.099,-0.1025,-0.105,-0.1056,-0.1061,-0.1055,-0.1058,-0.1027,-0.0964,-0.097,-0.091,-0.0867,-0.0863,-0.0733,-0.0687,-0.0758,-0.079,-0.0791,-0.0791,-0.0792,-0.0792,0,-0.0737,-0.0799,-0.085,-0.0876,-0.0937,-0.0974,-0.1011,-0.1048,-0.1068,-0.1103,-0.1103,-0.1103,-0.109,-0.1039,-0.0951,-0.0959,-0.0851,-0.086,-0.0691,-0.0681,-0.0788,-0.0786,-0.0804,-0.0805,-0.0805,-0.0805,-0.0805,0,-0.0759,-0.0798,-0.0856,-0.0886,-0.0945,-0.0991,-0.105,-0.1076,-0.1109,-0.1115,-0.1137,-0.111,-0.1085,-0.1017,-0.0955,-0.0794,-0.0852,-0.0689,-0.0652,-0.0811,-0.0813,-0.0785,-0.0784,-0.0802,-0.0803,-0.0803,-0.0804,0,-0.0756,-0.0797,-0.0852,-0.0923,-0.095,-0.0995,-0.1066,-0.1091,-0.1121,-0.1126,-0.1138,-0.1109,-0.1012,-0.095,-0.0851,-0.0769,-0.0664,-0.0586,-0.0741,-0.0716,-0.0511,-0.0514,-0.0422,-0.0417,-0.0413,-0.041,-0.0407,0,-0.0761,-0.079,-0.0873,-0.0906,-0.0945,-0.1011,-0.1051,-0.1096,-0.11,-0.1095,-0.1075,-0.1007,-0.0966,-0.0741,-0.0682,-0.0544,-0.0509,-0.0463,-0.0512,-0.0498,-0.0472,-0.0481,-0.0489,-0.04,-0.0399,-0.0398,-0.0397,0,-0.0762,-0.0799,-0.0839,-0.0905,-0.0956,-0.1004,-0.1048,-0.1044,-0.107,-0.1084,-0.099,-0.0908,-0.077,-0.0665,-0.0535,-0.0443,-0.0516,-0.042,-0.0429,-0.0476,-0.0471,-0.0451,-0.0464,-0.0383,-0.0385,-0.0386,-0.0387,0,-0.0757,-0.0783,-0.084,-0.0888,-0.0954,-0.0986,-0.1013,-0.0995,-0.0999,-0.0974,-0.0925,-0.0832,-0.0784,-0.0604,-0.0492,-0.0383,-0.0369,-0.0357,-0.0369,-0.0384,-0.0392,-0.0382,-0.0226,0,0,0,0,0,-0.0745,-0.0765,-0.0816,-0.0868,-0.0933,-0.0967,-0.1003,-0.1017,-0.1015,-0.093,-0.0928,-0.0799,-0.0617,-0.0555,-0.042,-0.0429,-0.0364,-0.0267,-0.0361,-0.0304,-0.0321,-0.0325,0,0,0,0,0,0,-0.0734,-0.078,-0.08,-0.0843,-0.0874,-0.0933,-0.0961,-0.096,-0.0904,-0.0891,-0.0795,-0.0745,-0.0578,-0.0687,-0.041,-0.0378,-0.0414,-0.019,-0.0186,-0.0295,-0.031,-0.0323,-0.0333,0,0,0,0,0]}]]